User: anonymous   Login
Location: Mauna Kea VIS
(19.7591°N, 155.4561°W)
Time: 23:32:38
(UTC-10:00)
Language:

Cosmos 1624 Rocket - Orbit

View from above orbital plane
View from above orbital plane
View from above satellite
View from above satellite

Ground track
Ground track

The orbit data is extracted from the following two-line orbital elements,

1 15483U 85006B   14296.50977839  .00000257  00000-0  97565-4 0  3578
2 15483 074.0457 330.8922 0018795 194.5904 271.0972 14.35882841557648
Epoch (UTC): 23 October 2014 12:14:04
Eccentricity: 0.0018795
inclination: 74.0457°
perigee height: 758 km
apogee height: 785 km
right ascension of ascending node: 330.8922°
argument of perigee: 194.5904°
revolutions per day: 14.35882841
mean anomaly at epoch: 271.0972°
orbit number at epoch: 55764

The dashed part of the orbit path shows where the satellite is in the earth's shadow,  

DLR